Station Historical Data
Daily Summary for August 9, 2017 Units:  English    Metric   Both
Next Day »
Daily Weekly Monthly Yearly Custom
  High: Low: Average:
Temperature: 87.1 °F 68.6 °F 75.6 °F
Dew Point: 57.7 °F 51.2 °F 54.4 °F
Humidity: 61% 32% 49%
Wind Speed: 12.0mph 0.0mph 2.5mph
Wind Gust: 16.0mph - -
Wind- - SSE
Pressure: 29.90 in 29.86 in -
Precipitation: 0.00 in    
Historical Graphs
 
 
Tabular Data for August 9, 2017
Time Temperature Dew Point Pressure Wind Wind Speed Wind Gust Humidity Rainfall Rate (Hourly) solar Conditions
00:01 71.2 °F 52.7 °F 29.88 in East 2.0 mph 5.0 mph 52% 0.00 in 0.00 W/m2
00:02 71.2 °F 52.7 °F 29.88 in East 4.0 mph 7.0 mph 52% 0.00 in 0.00 W/m2
00:07 71.2 °F 52.7 °F 29.88 in East 4.0 mph 9.0 mph 52% 0.00 in 0.00 W/m2
00:12 71.2 °F 52.7 °F 29.88 in ESE 4.0 mph 7.0 mph 52% 0.00 in 0.00 W/m2
00:17 71.2 °F 52.7 °F 29.88 in ESE 7.0 mph 9.0 mph 52% 0.00 in 0.00 W/m2
00:22 71.2 °F 52.7 °F 29.88 in ESE 5.0 mph 8.0 mph 52% 0.00 in 0.00 W/m2
00:27 71.1 °F 52.6 °F 29.88 in ESE 6.0 mph 9.0 mph 52% 0.00 in 0.00 W/m2
00:32 71.0 °F 52.5 °F 29.88 in East 9.0 mph 9.0 mph 52% 0.00 in 0.00 W/m2
00:37 71.0 °F 52.5 °F 29.88 in Calm   7.0 mph 52% 0.00 in 0.00 W/m2
00:42 70.8 °F 52.8 °F 29.88 in Calm     53% 0.00 in 0.00 W/m2
00:47 70.6 °F 52.7 °F 29.88 in Calm     53% 0.00 in 0.00 W/m2
00:52 70.5 °F 52.6 °F 29.88 in East 4.0 mph 4.0 mph 53% 0.00 in 0.00 W/m2
00:57 70.4 °F 52.5 °F 29.88 in Calm     53% 0.00 in 0.00 W/m2
01:03 70.3 °F 52.4 °F 29.89 in East 2.0 mph 5.0 mph 53% 0.00 in 0.00 W/m2
01:08 70.3 °F 52.9 °F 29.89 in East 2.0 mph 2.0 mph 54% 0.00 in 0.00 W/m2
01:13 70.2 °F 52.3 °F 29.88 in Calm   1.0 mph 53% 0.00 in 0.00 W/m2
01:23 69.7 °F 52.8 °F 29.89 in Calm   6.0 mph 55% 0.00 in 0.00 W/m2
01:33 69.3 °F 52.5 °F 29.89 in East 7.0 mph 7.0 mph 55% 0.00 in 0.00 W/m2
01:38 69.2 °F 52.4 °F 29.88 in East 5.0 mph 7.0 mph 55% 0.00 in 0.00 W/m2
01:43 69.0 °F 52.2 °F 29.88 in East 5.0 mph 7.0 mph 55% 0.00 in 0.00 W/m2
01:48 68.9 °F 52.6 °F 29.88 in Calm   8.0 mph 56% 0.00 in 0.00 W/m2
01:53 68.8 °F 52.5 °F 29.88 in East 2.0 mph 11.0 mph 56% 0.00 in 0.00 W/m2
01:58 68.7 °F 52.4 °F 29.88 in East 7.0 mph 11.0 mph 56% 0.00 in 0.00 W/m2
02:03 68.7 °F 52.4 °F 29.88 in East 8.0 mph 11.0 mph 56% 0.00 in 0.00 W/m2
02:08 68.6 °F 52.3 °F 29.87 in ESE 5.0 mph 9.0 mph 56% 0.00 in 0.00 W/m2
02:13 68.6 °F 52.3 °F 29.87 in Calm   7.0 mph 56% 0.00 in 0.00 W/m2
02:18 68.7 °F 52.4 °F 29.87 in ESE 4.0 mph 12.0 mph 56% 0.00 in 0.00 W/m2
02:23 68.8 °F 52.5 °F 29.87 in East 8.0 mph 12.0 mph 56% 0.00 in 0.00 W/m2
02:28 68.9 °F 52.1 °F 29.87 in East 6.0 mph 13.0 mph 55% 0.00 in 0.00 W/m2
02:33 69.0 °F 52.2 °F 29.87 in East 5.0 mph 12.0 mph 55% 0.00 in 0.00 W/m2
02:38 69.1 °F 52.3 °F 29.87 in ESE 4.0 mph 12.0 mph 55% 0.00 in 0.00 W/m2
02:43 69.2 °F 52.4 °F 29.87 in ESE 5.0 mph 13.0 mph 55% 0.00 in 0.00 W/m2
02:48 69.3 °F 52.5 °F 29.87 in ESE 8.0 mph 9.0 mph 55% 0.00 in 0.00 W/m2
02:53 69.3 °F 52.5 °F 29.87 in ESE 6.0 mph 8.0 mph 55% 0.00 in 0.00 W/m2
02:58 69.4 °F 52.5 °F 29.87 in East 4.0 mph 9.0 mph 55% 0.00 in 0.00 W/m2
03:03 69.4 °F 52.5 °F 29.87 in East 6.0 mph 12.0 mph 55% 0.00 in 0.00 W/m2
03:08 69.4 °F 52.5 °F 29.87 in East 2.0 mph 9.0 mph 55% 0.00 in 0.00 W/m2
03:13 69.4 °F 52.5 °F 29.87 in East 5.0 mph 11.0 mph 55% 0.00 in 0.00 W/m2
03:18 69.4 °F 52.5 °F 29.87 in East 6.0 mph 12.0 mph 55% 0.00 in 0.00 W/m2
03:23 69.4 °F 52.5 °F 29.87 in East 6.0 mph 12.0 mph 55% 0.00 in 0.00 W/m2
03:28 69.4 °F 52.0 °F 29.87 in ESE 6.0 mph 12.0 mph 54% 0.00 in 0.00 W/m2
03:33 69.4 °F 52.0 °F 29.87 in ESE 2.0 mph 9.0 mph 54% 0.00 in 0.00 W/m2
03:38 69.4 °F 52.0 °F 29.87 in ESE 9.0 mph 9.0 mph 54% 0.00 in 0.00 W/m2
03:43 69.5 °F 52.2 °F 29.87 in East 7.0 mph 12.0 mph 54% 0.00 in 0.00 W/m2
03:48 69.5 °F 52.2 °F 29.87 in East 6.0 mph 12.0 mph 54% 0.00 in 0.00 W/m2
03:53 69.5 °F 52.2 °F 29.87 in ESE 6.0 mph 11.0 mph 54% 0.00 in 0.00 W/m2
03:58 69.5 °F 52.2 °F 29.87 in ESE 2.0 mph 12.0 mph 54% 0.00 in 0.00 W/m2
04:03 69.5 °F 52.2 °F 29.87 in ESE 9.0 mph 12.0 mph 54% 0.00 in 0.00 W/m2
04:08 69.5 °F 52.2 °F 29.86 in ESE 6.0 mph 13.0 mph 54% 0.00 in 0.00 W/m2
04:13 69.5 °F 52.2 °F 29.87 in Calm   16.0 mph 54% 0.00 in 0.00 W/m2
04:19 69.5 °F 52.2 °F 29.86 in East 9.0 mph 12.0 mph 54% 0.00 in 0.00 W/m2
04:24 69.5 °F 52.2 °F 29.86 in ESE 5.0 mph 9.0 mph 54% 0.00 in 0.00 W/m2
04:29 69.5 °F 52.2 °F 29.86 in ESE 8.0 mph 13.0 mph 54% 0.00 in 0.00 W/m2
04:34 69.5 °F 52.2 °F 29.86 in East 6.0 mph 11.0 mph 54% 0.00 in 0.00 W/m2
04:39 69.5 °F 52.2 °F 29.86 in ESE 6.0 mph 12.0 mph 54% 0.00 in 0.00 W/m2
04:44 69.5 °F 52.2 °F 29.86 in ESE 4.0 mph 13.0 mph 54% 0.00 in 0.00 W/m2
04:49 69.5 °F 52.2 °F 29.86 in ESE 12.0 mph 12.0 mph 54% 0.00 in 0.00 W/m2
04:54 69.4 °F 52.0 °F 29.86 in East 11.0 mph 13.0 mph 54% 0.00 in 0.00 W/m2
04:59 69.4 °F 52.0 °F 29.86 in East 4.0 mph 14.0 mph 54% 0.00 in 0.00 W/m2
05:04 69.4 °F 52.0 °F 29.86 in Calm   13.0 mph 54% 0.00 in 0.00 W/m2
05:09 69.4 °F 52.0 °F 29.86 in ESE 2.0 mph 11.0 mph 54% 0.00 in 0.00 W/m2
05:14 69.4 °F 52.0 °F 29.86 in ESE 6.0 mph 9.0 mph 54% 0.00 in 0.00 W/m2
05:19 69.3 °F 51.5 °F 29.86 in ESE 4.0 mph 13.0 mph 53% 0.00 in 0.00 W/m2
05:24 69.3 °F 51.5 °F 29.86 in Calm   12.0 mph 53% 0.00 in 0.00 W/m2
05:29 69.3 °F 52.0 °F 29.86 in East 5.0 mph 12.0 mph 54% 0.00 in 0.00 W/m2
05:34 69.2 °F 51.4 °F 29.86 in East 2.0 mph 12.0 mph 53% 0.00 in 0.00 W/m2
05:39 69.3 °F 51.5 °F 29.86 in East 4.0 mph 9.0 mph 53% 0.00 in 0.00 W/m2
05:40 69.2 °F 51.4 °F 29.86 in ESE 5.0 mph 14.0 mph 53% 0.00 in 0.00 W/m2
05:45 69.2 °F 51.4 °F 29.86 in East 5.0 mph 12.0 mph 53% 0.00 in 0.00 W/m2
05:47 69.2 °F 51.4 °F 29.86 in Calm   9.0 mph 53% 0.00 in 0.00 W/m2
05:52 69.2 °F 51.4 °F 29.86 in Calm   11.0 mph 53% 0.00 in 0.00 W/m2
05:57 69.2 °F 51.4 °F 29.86 in ESE 2.0 mph 11.0 mph 53% 0.00 in 0.00 W/m2
06:02 69.2 °F 51.4 °F 29.86 in East 11.0 mph 11.0 mph 53% 0.00 in 0.00 W/m2
06:07 69.2 °F 51.4 °F 29.86 in ESE 5.0 mph 9.0 mph 53% 0.00 in 0.00 W/m2
06:12 69.2 °F 51.4 °F 29.86 in ESE 2.0 mph 7.0 mph 53% 0.00 in 5.00 W/m2
06:17 69.2 °F 51.4 °F 29.86 in ESE 8.0 mph 8.0 mph 53% 0.00 in 7.00 W/m2
06:22 69.1 °F 51.3 °F 29.87 in ESE 6.0 mph 9.0 mph 53% 0.00 in 11.00 W/m2
06:27 69.1 °F 51.3 °F 29.86 in ESE 7.0 mph 11.0 mph 53% 0.00 in 12.00 W/m2
06:32 69.0 °F 51.2 °F 29.87 in East 2.0 mph 12.0 mph 53% 0.00 in 16.00 W/m2
06:37 69.0 °F 51.7 °F 29.87 in Calm   13.0 mph 54% 0.00 in 19.00 W/m2
06:42 69.0 °F 51.7 °F 29.87 in East 6.0 mph 9.0 mph 54% 0.00 in 25.00 W/m2
06:47 69.0 °F 51.7 °F 29.87 in ESE 7.0 mph 14.0 mph 54% 0.00 in 33.00 W/m2
06:52 68.9 °F 51.6 °F 29.87 in ESE 9.0 mph 11.0 mph 54% 0.00 in 40.00 W/m2
06:57 68.9 °F 51.6 °F 29.87 in ESE 8.0 mph 11.0 mph 54% 0.00 in 49.00 W/m2
07:02 69.0 °F 51.7 °F 29.87 in ESE 5.0 mph 11.0 mph 54% 0.00 in 58.00 W/m2
07:07 68.9 °F 51.6 °F 29.87 in ESE 2.0 mph 8.0 mph 54% 0.00 in 74.00 W/m2
07:12 68.9 °F 52.1 °F 29.87 in Calm   11.0 mph 55% 0.00 in 88.00 W/m2
07:17 68.9 °F 52.1 °F 29.87 in ESE 7.0 mph 11.0 mph 55% 0.00 in 105.00 W/m2
07:22 69.0 °F 52.2 °F 29.87 in ESE 1.0 mph 11.0 mph 55% 0.00 in 128.00 W/m2
07:27 69.0 °F 52.2 °F 29.87 in ESE 4.0 mph 13.0 mph 55% 0.00 in 155.00 W/m2
07:32 69.0 °F 52.2 °F 29.87 in ESE 6.0 mph 11.0 mph 55% 0.00 in 171.00 W/m2
07:37 69.0 °F 52.2 °F 29.87 in ESE 2.0 mph 14.0 mph 55% 0.00 in 188.00 W/m2
07:42 69.1 °F 52.8 °F 29.87 in East 1.0 mph 12.0 mph 56% 0.00 in 202.00 W/m2
07:48 69.1 °F 52.8 °F 29.87 in East 8.0 mph 9.0 mph 56% 0.00 in 218.00 W/m2
07:53 69.2 °F 52.8 °F 29.87 in Calm   11.0 mph 56% 0.00 in 234.00 W/m2
07:58 69.3 °F 53.4 °F 29.87 in East 8.0 mph 9.0 mph 57% 0.00 in 250.00 W/m2
08:03 69.4 °F 53.5 °F 29.87 in Calm   9.0 mph 57% 0.00 in 264.00 W/m2
08:08 69.5 °F 53.6 °F 29.87 in ESE 4.0 mph 9.0 mph 57% 0.00 in 281.00 W/m2
08:13 69.6 °F 53.7 °F 29.87 in East 2.0 mph 9.0 mph 57% 0.00 in 297.00 W/m2
08:18 69.7 °F 54.3 °F 29.87 in Calm   9.0 mph 58% 0.00 in 309.00 W/m2
08:23 69.8 °F 54.4 °F 29.87 in Calm   7.0 mph 58% 0.00 in 327.00 W/m2
08:28 69.9 °F 54.5 °F 29.87 in Calm   6.0 mph 58% 0.00 in 352.00 W/m2
08:33 70.1 °F 55.1 °F 29.87 in Calm   6.0 mph 59% 0.00 in 364.00 W/m2
08:38 70.2 °F 55.2 °F 29.87 in Calm   6.0 mph 59% 0.00 in 383.00 W/m2
08:43 70.4 °F 55.4 °F 29.88 in Calm   1.0 mph 59% 0.00 in 399.00 W/m2
08:48 70.5 °F 56.0 °F 29.88 in Calm   2.0 mph 60% 0.00 in 411.00 W/m2
08:53 70.7 °F 56.2 °F 29.88 in Calm     60% 0.00 in 429.00 W/m2
08:58 70.9 °F 56.3 °F 29.88 in ESE 2.0 mph 5.0 mph 60% 0.00 in 443.00 W/m2
09:01 71.0 °F 56.4 °F 29.88 in Calm     60% 0.00 in 452.00 W/m2
09:06 71.3 °F 57.2 °F 29.88 in Calm     61% 0.00 in 464.00 W/m2
09:11 71.6 °F 57.5 °F 29.88 in Calm     61% 0.00 in 480.00 W/m2
09:16 72.1 °F 57.5 °F 29.88 in Calm     60% 0.00 in 492.00 W/m2
09:21 72.3 °F 57.7 °F 29.88 in Calm     60% 0.00 in 512.00 W/m2
09:26 72.5 °F 55.4 °F 29.88 in Calm     55% 0.00 in 526.00 W/m2
09:31 73.0 °F 54.9 °F 29.88 in Calm     53% 0.00 in 538.00 W/m2
09:36 73.5 °F 54.3 °F 29.88 in Calm   2.0 mph 51% 0.00 in 561.00 W/m2
09:41 73.8 °F 54.0 °F 29.88 in Calm     50% 0.00 in 570.00 W/m2
09:46 74.2 °F 54.9 °F 29.88 in Calm     51% 0.00 in 589.00 W/m2
09:51 74.6 °F 55.8 °F 29.88 in Calm     52% 0.00 in 603.00 W/m2
09:56 75.0 °F 55.7 °F 29.88 in ESE 1.0 mph 2.0 mph 51% 0.00 in 621.00 W/m2
10:01 75.5 °F 55.6 °F 29.89 in Calm   1.0 mph 50% 0.00 in 633.00 W/m2
10:06 75.7 °F 55.8 °F 29.88 in Calm     50% 0.00 in 645.00 W/m2
10:11 76.1 °F 56.7 °F 29.89 in ESE 4.0 mph 4.0 mph 51% 0.00 in 656.00 W/m2
10:12 76.2 °F 56.8 °F 29.89 in Calm   4.0 mph 51% 0.00 in 659.00 W/m2
10:17 76.5 °F 55.9 °F 29.89 in Calm   1.0 mph 49% 0.00 in 673.00 W/m2
10:22 76.8 °F 56.8 °F 29.89 in SE 2.0 mph 6.0 mph 50% 0.00 in 689.00 W/m2
10:27 77.1 °F 55.3 °F 29.89 in Calm   7.0 mph 47% 0.00 in 701.00 W/m2
10:32 77.4 °F 55.6 °F 29.89 in Calm   4.0 mph 47% 0.00 in 708.00 W/m2
10:37 77.6 °F 55.2 °F 29.89 in SSW 3.0 mph 3.0 mph 46% 0.00 in 719.00 W/m2
10:42 77.9 °F 54.9 °F 29.90 in SSW 3.0 mph 3.0 mph 45% 0.00 in 733.00 W/m2
10:47 78.0 °F 55.0 °F 29.90 in SW 3.0 mph 4.0 mph 45% 0.00 in 738.00 W/m2
10:52 78.0 °F 55.0 °F 29.90 in Calm     45% 0.00 in 751.00 W/m2
10:57 78.2 °F 54.5 °F 29.90 in Calm   1.0 mph 44% 0.00 in 759.00 W/m2
11:02 78.4 °F 55.9 °F 29.90 in SW 4.0 mph 5.0 mph 46% 0.00 in 770.00 W/m2
11:07 78.6 °F 55.5 °F 29.90 in Calm     45% 0.00 in 780.00 W/m2
11:12 78.9 °F 55.2 °F 29.90 in Calm   3.0 mph 44% 0.00 in 788.00 W/m2
11:17 79.2 °F 55.4 °F 29.90 in Calm   3.0 mph 44% 0.00 in 796.00 W/m2
11:22 79.5 °F 55.7 °F 29.90 in SW 5.0 mph 6.0 mph 44% 0.00 in 803.00 W/m2
11:27 79.8 °F 56.0 °F 29.89 in Calm   5.0 mph 44% 0.00 in 810.00 W/m2
11:32 80.1 °F 56.9 °F 29.90 in Calm   6.0 mph 45% 0.00 in 821.00 W/m2
11:37 80.4 °F 57.1 °F 29.89 in Calm     45% 0.00 in 826.00 W/m2
11:42 80.8 °F 55.6 °F 29.89 in SW 2.0 mph 2.0 mph 42% 0.00 in 831.00 W/m2
11:47 81.2 °F 57.2 °F 29.89 in Calm   1.0 mph 44% 0.00 in 838.00 W/m2
11:52 81.4 °F 56.8 °F 29.89 in SW 4.0 mph 4.0 mph 43% 0.00 in 844.00 W/m2
11:57 81.6 °F 57.0 °F 29.89 in SW 1.0 mph 3.0 mph 43% 0.00 in 849.00 W/m2
12:02 81.9 °F 57.2 °F 29.89 in Calm   2.0 mph 43% 0.00 in 860.00 W/m2
12:07 82.1 °F 56.8 °F 29.89 in SW 3.0 mph 4.0 mph 42% 0.00 in 865.00 W/m2
12:12 82.6 °F 56.5 °F 29.89 in WSW 2.0 mph 6.0 mph 41% 0.00 in 867.00 W/m2
12:17 82.7 °F 56.0 °F 29.89 in West 6.0 mph 9.0 mph 40% 0.00 in 870.00 W/m2
12:22 82.7 °F 56.6 °F 29.89 in Calm   4.0 mph 41% 0.00 in 874.00 W/m2
12:27 83.0 °F 56.2 °F 29.89 in Calm   5.0 mph 40% 0.00 in 875.00 W/m2
12:32 83.2 °F 57.1 °F 29.89 in WNW 6.0 mph 9.0 mph 41% 0.00 in 877.00 W/m2
12:37 83.5 °F 56.7 °F 29.89 in WNW 2.0 mph 9.0 mph 40% 0.00 in 881.00 W/m2
12:42 83.5 °F 56.7 °F 29.89 in Calm   7.0 mph 40% 0.00 in 879.00 W/m2
12:47 83.6 °F 57.4 °F 29.89 in WSW 3.0 mph 9.0 mph 41% 0.00 in 889.00 W/m2
12:52 83.9 °F 56.3 °F 29.89 in Calm   5.0 mph 39% 0.00 in 891.00 W/m2
12:57 84.2 °F 55.9 °F 29.89 in WSW 3.0 mph 5.0 mph 38% 0.00 in 898.00 W/m2
13:02 84.8 °F 55.7 °F 29.89 in Calm   5.0 mph 37% 0.00 in 896.00 W/m2
13:07 85.4 °F 56.2 °F 29.89 in SSW 6.0 mph 10.0 mph 37% 0.00 in 896.00 W/m2
13:12 86.0 °F 55.2 °F 29.89 in SW 5.0 mph 9.0 mph 35% 0.00 in 895.00 W/m2
13:17 86.5 °F 54.8 °F 29.89 in SW 6.0 mph 8.0 mph 34% 0.00 in 895.00 W/m2
13:22 87.0 °F 53.6 °F 29.89 in Calm   5.0 mph 32% 0.00 in 889.00 W/m2
13:27 87.1 °F 53.7 °F 29.89 in WSW 7.0 mph 10.0 mph 32% 0.00 in 889.00 W/m2
13:32 86.5 °F 54.0 °F 29.89 in Calm   4.0 mph 33% 0.00 in 888.00 W/m2
13:37 86.1 °F 54.5 °F 29.89 in Calm   4.0 mph 34% 0.00 in 884.00 W/m2
13:42 86.3 °F 53.0 °F 29.89 in Calm   6.0 mph 32% 0.00 in 886.00 W/m2
13:47 86.4 °F 53.1 °F 29.89 in SW 6.0 mph 6.0 mph 32% 0.00 in 882.00 W/m2
13:53 86.5 °F 53.2 °F 29.89 in WSW 5.0 mph 12.0 mph 32% 0.00 in 875.00 W/m2
13:58 86.6 °F 53.3 °F 29.88 in Calm   6.0 mph 32% 0.00 in 867.00 W/m2
14:03 86.4 °F 54.7 °F 29.88 in WSW 5.0 mph 11.0 mph 34% 0.00 in 872.00 W/m2
14:08 86.2 °F 53.8 °F 29.88 in West 5.0 mph 9.0 mph 33% 0.00 in 867.00 W/m2
14:13 85.9 °F 55.1 °F 29.88 in WSW 7.0 mph 7.0 mph 35% 0.00 in 867.00 W/m2
14:18 86.0 °F 54.4 °F 29.88 in SW 4.0 mph 7.0 mph 34% 0.00 in 858.00 W/m2
14:23 86.4 °F 54.7 °F 29.88 in SSW 9.0 mph 11.0 mph 34% 0.00 in 860.00 W/m2
14:28 86.9 °F 54.4 °F 29.88 in SSW 3.0 mph 3.0 mph 33% 0.00 in 851.00 W/m2
14:33 87.0 °F 55.3 °F 29.88 in Calm   10.0 mph 34% 0.00 in 840.00 W/m2
14:38 86.9 °F 56.0 °F 29.88 in Calm   8.0 mph 35% 0.00 in 838.00 W/m2
14:43 86.8 °F 55.9 °F 29.88 in Calm   11.0 mph 35% 0.00 in 833.00 W/m2
14:48 86.9 °F 55.2 °F 29.88 in SW 4.0 mph 8.0 mph 34% 0.00 in 819.00 W/m2
14:53 87.1 °F 55.4 °F 29.87 in Calm   8.0 mph 34% 0.00 in 814.00 W/m2
14:58 87.1 °F 55.4 °F 29.87 in Calm   9.0 mph 34% 0.00 in 802.00 W/m2
15:03 87.0 °F 55.3 °F 29.87 in SW 3.0 mph 7.0 mph 34% 0.00 in 793.00 W/m2
15:08 87.0 °F 55.3 °F 29.87 in SW 5.0 mph 10.0 mph 34% 0.00 in 780.00 W/m2
15:13 86.5 °F 54.8 °F 29.87 in WSW 3.0 mph 10.0 mph 34% 0.00 in 775.00 W/m2
15:18 86.1 °F 55.3 °F 29.87 in Calm   5.0 mph 35% 0.00 in 758.00 W/m2
15:23 85.8 °F 55.8 °F 29.87 in Calm   4.0 mph 36% 0.00 in 754.00 W/m2
15:28 85.9 °F 54.3 °F 29.87 in WSW 4.0 mph 7.0 mph 34% 0.00 in 744.00 W/m2
15:33 85.6 °F 54.8 °F 29.86 in WSW 2.0 mph 12.0 mph 35% 0.00 in 735.00 W/m2
15:38 85.5 °F 53.1 °F 29.86 in Calm   9.0 mph 33% 0.00 in 722.00 W/m2
15:43 85.4 °F 53.0 °F 29.86 in Calm   5.0 mph 33% 0.00 in 721.00 W/m2
15:48 85.4 °F 53.0 °F 29.86 in Calm   5.0 mph 33% 0.00 in 703.00 W/m2
15:53 85.5 °F 54.0 °F 29.86 in SW 8.0 mph 10.0 mph 34% 0.00 in 689.00 W/m2
15:58 85.5 °F 54.8 °F 29.86 in Calm   6.0 mph 35% 0.00 in 677.00 W/m2
16:03 85.5 °F 54.8 °F 29.86 in WSW 6.0 mph 8.0 mph 35% 0.00 in 671.00 W/m2
16:08 85.6 °F 54.8 °F 29.86 in Calm   10.0 mph 35% 0.00 in 657.00 W/m2
16:13 85.4 °F 53.9 °F 29.86 in West 5.0 mph 10.0 mph 34% 0.00 in 643.00 W/m2
16:18 85.2 °F 53.7 °F 29.86 in WSW 9.0 mph 9.0 mph 34% 0.00 in 628.00 W/m2
16:23 85.1 °F 54.4 °F 29.86 in SW 9.0 mph 11.0 mph 35% 0.00 in 617.00 W/m2
16:28 85.2 °F 53.7 °F 29.86 in SW 3.0 mph 12.0 mph 34% 0.00 in 603.00 W/m2
16:33 85.2 °F 52.9 °F 29.86 in Calm   8.0 mph 33% 0.00 in 584.00 W/m2
16:38 85.3 °F 53.8 °F 29.86 in SW 8.0 mph 11.0 mph 34% 0.00 in 577.00 W/m2
16:43 85.3 °F 53.8 °F 29.86 in WSW 5.0 mph 8.0 mph 34% 0.00 in 561.00 W/m2
16:48 85.2 °F 53.7 °F 29.86 in WSW 4.0 mph 11.0 mph 34% 0.00 in 548.00 W/m2
16:53 85.1 °F 53.6 °F 29.86 in WSW 8.0 mph 8.0 mph 34% 0.00 in 529.00 W/m2
16:58 84.8 °F 54.1 °F 29.86 in SW 11.0 mph 13.0 mph 35% 0.00 in 517.00 W/m2
17:03 84.7 °F 53.3 °F 29.86 in SW 3.0 mph 11.0 mph 34% 0.00 in 503.00 W/m2
17:08 84.6 °F 54.0 °F 29.86 in WSW 9.0 mph 10.0 mph 35% 0.00 in 487.00 W/m2
17:13 84.4 °F 54.6 °F 29.86 in Calm   4.0 mph 36% 0.00 in 469.00 W/m2
17:18 84.2 °F 54.4 °F 29.87 in WSW 6.0 mph 10.0 mph 36% 0.00 in 461.00 W/m2
17:23 84.1 °F 53.5 °F 29.87 in WSW 5.0 mph 7.0 mph 35% 0.00 in 443.00 W/m2
17:28 84.1 °F 54.3 °F 29.87 in Calm   6.0 mph 36% 0.00 in 422.00 W/m2
17:33 84.0 °F 54.2 °F 29.87 in Calm   10.0 mph 36% 0.00 in 410.00 W/m2
17:38 83.9 °F 54.1 °F 29.87 in Calm   9.0 mph 36% 0.00 in 392.00 W/m2
17:43 83.9 °F 54.1 °F 29.87 in Calm   8.0 mph 36% 0.00 in 380.00 W/m2
17:48 83.8 °F 54.8 °F 29.87 in WSW 7.0 mph 10.0 mph 37% 0.00 in 364.00 W/m2
17:53 83.5 °F 54.5 °F 29.87 in Calm   1.0 mph 37% 0.00 in 348.00 W/m2
17:58 83.2 °F 54.2 °F 29.87 in Calm   5.0 mph 37% 0.00 in 332.00 W/m2
18:03 83.1 °F 54.9 °F 29.87 in Calm   1.0 mph 38% 0.00 in 320.00 W/m2
18:08 82.9 °F 54.0 °F 29.87 in Calm   4.0 mph 37% 0.00 in 301.00 W/m2
18:13 82.9 °F 55.4 °F 29.87 in Calm   3.0 mph 39% 0.00 in 287.00 W/m2
18:18 82.7 °F 54.5 °F 29.87 in Calm   1.0 mph 38% 0.00 in 267.00 W/m2
18:23 82.5 °F 53.6 °F 29.87 in Calm   4.0 mph 37% 0.00 in 251.00 W/m2
18:28 82.4 °F 55.0 °F 29.87 in Calm   1.0 mph 39% 0.00 in 234.00 W/m2
18:34 82.4 °F 55.0 °F 29.87 in West 2.0 mph 3.0 mph 39% 0.00 in 218.00 W/m2
18:39 82.3 °F 54.9 °F 29.87 in West 1.0 mph 6.0 mph 39% 0.00 in 202.00 W/m2
18:44 82.1 °F 56.1 °F 29.86 in Calm     41% 0.00 in 188.00 W/m2
18:49 81.8 °F 55.8 °F 29.86 in Calm   1.0 mph 41% 0.00 in 171.00 W/m2
18:54 81.3 °F 55.4 °F 29.87 in Calm   1.0 mph 41% 0.00 in 151.00 W/m2
18:59 81.0 °F 56.4 °F 29.87 in Calm   1.0 mph 43% 0.00 in 132.00 W/m2
19:04 80.7 °F 56.2 °F 29.87 in Calm     43% 0.00 in 113.00 W/m2
19:09 80.4 °F 56.5 °F 29.87 in Calm     44% 0.00 in 93.00 W/m2
19:14 80.0 °F 56.8 °F 29.87 in West 1.0 mph 1.0 mph 45% 0.00 in 77.00 W/m2
19:19 79.7 °F 56.5 °F 29.87 in Calm     45% 0.00 in 62.00 W/m2
19:24 79.4 °F 56.2 °F 29.87 in Calm   1.0 mph 45% 0.00 in 49.00 W/m2
19:29 79.2 °F 56.7 °F 29.87 in Calm     46% 0.00 in 37.00 W/m2
19:34 79.0 °F 56.5 °F 29.87 in Calm     46% 0.00 in 28.00 W/m2
19:39 78.7 °F 56.8 °F 29.87 in Calm     47% 0.00 in 19.00 W/m2
19:45 78.3 °F 57.0 °F 29.87 in Calm   1.0 mph 48% 0.00 in 16.00 W/m2
19:50 77.6 °F 57.0 °F 29.87 in Calm   1.0 mph 49% 0.00 in 12.00 W/m2
19:55 77.1 °F 56.5 °F 29.87 in Calm     49% 0.00 in 11.00 W/m2
20:00 76.7 °F 56.7 °F 29.87 in Calm     50% 0.00 in 9.00 W/m2
20:05 76.5 °F 56.5 °F 29.87 in Calm   1.0 mph 50% 0.00 in 5.00 W/m2
20:10 76.1 °F 56.7 °F 29.87 in Calm     51% 0.00 in 0.00 W/m2
20:15 75.5 °F 56.7 °F 29.88 in Calm     52% 0.00 in 0.00 W/m2
20:20 74.8 °F 56.5 °F 29.88 in Calm     53% 0.00 in 0.00 W/m2
20:22 74.6 °F 56.4 °F 29.88 in Calm     53% 0.00 in 0.00 W/m2
20:24 74.4 °F 56.7 °F 29.88 in Calm     54% 0.00 in 0.00 W/m2
20:25 74.4 °F 56.7 °F 29.88 in Calm     54% 0.00 in 0.00 W/m2
20:30 74.1 °F 56.4 °F 29.88 in Calm     54% 0.00 in 0.00 W/m2
20:35 73.9 °F 56.7 °F 29.88 in Calm     55% 0.00 in 0.00 W/m2
20:36 73.8 °F 56.6 °F 29.88 in Calm     55% 0.00 in 0.00 W/m2
20:41 73.4 °F 56.8 °F 29.88 in Calm     56% 0.00 in 0.00 W/m2
20:46 73.1 °F 56.5 °F 29.88 in Calm     56% 0.00 in 0.00 W/m2
20:51 72.9 °F 56.8 °F 29.88 in Calm     57% 0.00 in 0.00 W/m2
20:56 72.9 °F 56.8 °F 29.88 in Calm     57% 0.00 in 0.00 W/m2
21:01 72.8 °F 56.7 °F 29.88 in Calm     57% 0.00 in 0.00 W/m2
21:06 72.7 °F 56.6 °F 29.88 in Calm     57% 0.00 in 0.00 W/m2
21:11 72.6 °F 56.5 °F 29.88 in Calm     57% 0.00 in 0.00 W/m2
21:16 72.6 °F 57.0 °F 29.89 in Calm     58% 0.00 in 0.00 W/m2
21:17 72.6 °F 57.0 °F 29.88 in Calm     58% 0.00 in 0.00 W/m2
21:22 72.5 °F 56.9 °F 29.89 in Calm   4.0 mph 58% 0.00 in 0.00 W/m2
21:27 72.5 °F 56.9 °F 29.88 in Calm     58% 0.00 in 0.00 W/m2
21:32 72.4 °F 56.8 °F 29.88 in Calm   4.0 mph 58% 0.00 in 0.00 W/m2
21:37 72.2 °F 56.6 °F 29.88 in Calm   3.0 mph 58% 0.00 in 0.00 W/m2
21:42 72.1 °F 56.5 °F 29.88 in Calm   1.0 mph 58% 0.00 in 0.00 W/m2
21:47 72.0 °F 56.4 °F 29.88 in Calm   3.0 mph 58% 0.00 in 0.00 W/m2
21:52 71.9 °F 56.3 °F 29.88 in Calm   1.0 mph 58% 0.00 in 0.00 W/m2
21:57 71.9 °F 56.3 °F 29.89 in Calm     58% 0.00 in 0.00 W/m2
22:02 71.8 °F 56.2 °F 29.89 in Calm     58% 0.00 in 0.00 W/m2
22:07 71.7 °F 56.2 °F 29.89 in Calm     58% 0.00 in 0.00 W/m2
22:12 71.6 °F 56.5 °F 29.89 in Calm     59% 0.00 in 0.00 W/m2
22:17 71.5 °F 56.0 °F 29.89 in Calm     58% 0.00 in 0.00 W/m2
22:22 71.4 °F 56.3 °F 29.89 in Calm     59% 0.00 in 0.00 W/m2
22:27 71.1 °F 56.1 °F 29.89 in Calm     59% 0.00 in 0.00 W/m2
22:32 71.0 °F 56.0 °F 29.89 in Calm     59% 0.00 in 0.00 W/m2
22:37 70.8 °F 55.8 °F 29.89 in Calm     59% 0.00 in 0.00 W/m2
22:43 70.6 °F 55.6 °F 29.89 in Calm     59% 0.00 in 0.00 W/m2
22:48 70.6 °F 55.6 °F 29.89 in Calm     59% 0.00 in 0.00 W/m2
22:53 70.5 °F 55.5 °F 29.89 in Calm     59% 0.00 in 0.00 W/m2
22:58 70.4 °F 55.4 °F 29.89 in Calm     59% 0.00 in 0.00 W/m2
23:03 70.2 °F 55.7 °F 29.89 in Calm   1.0 mph 60% 0.00 in 0.00 W/m2
23:08 70.2 °F 55.7 °F 29.89 in SW 1.0 mph 4.0 mph 60% 0.00 in 0.00 W/m2
23:10 70.1 °F 55.6 °F 29.89 in SSW 2.0 mph 4.0 mph 60% 0.00 in 0.00 W/m2
23:15 70.1 °F 55.6 °F 29.89 in Calm   6.0 mph 60% 0.00 in 0.00 W/m2
23:20 70.0 °F 55.5 °F 29.89 in South 6.0 mph 6.0 mph 60% 0.00 in 0.00 W/m2
23:25 69.9 °F 55.4 °F 29.89 in South 1.0 mph 6.0 mph 60% 0.00 in 0.00 W/m2
23:30 69.8 °F 55.3 °F 29.89 in Calm   10.0 mph 60% 0.00 in 0.00 W/m2
23:35 69.8 °F 55.3 °F 29.89 in SE 7.0 mph 8.0 mph 60% 0.00 in 0.00 W/m2
23:40 69.7 °F 55.2 °F 29.89 in SE 4.0 mph 6.0 mph 60% 0.00 in 0.00 W/m2
23:45 69.7 °F 54.8 °F 29.89 in SE 4.0 mph 8.0 mph 59% 0.00 in 0.00 W/m2
23:50 69.7 °F 54.3 °F 29.89 in ESE 4.0 mph 8.0 mph 58% 0.00 in 0.00 W/m2
23:55 69.6 °F 54.2 °F 29.89 in ESE 2.0 mph 7.0 mph 58% 0.00 in 0.00 W/m2
Foresthill Weather
 WU-history PHP script courtesy of   Juneau County Weather.
powered by Cumulus v1.9.3 (1059)
Ambient Weather VWS v14.00
Top Contact Website Map Copyright © 2007 - 2018 Foresthillweather.com Never base important decisions on this or any weather information obtained from the Internet